EW2016 Weather Reports


Display with metric or nautical units.
time (UTC)temp
F
wind
direction
speed
MPH
gust
MPH
rain 1hr
in
rain 24hr
in
rain mn
in
humidity
%
barometer
mb
20260502233045 55 214 0.0 0.0 0.00 0.01 0.01 74 1015.6
20260502231544 57 214 0.0 0.0 0.00 0.01 0.01 70 1015.5
20260502230144 57 214 0.0 1.0 0.00 0.01 0.01 66 1015.4
20260502224536 57 114 0.0 0.0 0.00 0.01 0.01 67 1015.4
20260502223036 58 88 0.0 1.0 0.00 0.01 0.01 67 1015.3
20260502221536 58 299 0.0 0.0 0.00 0.01 0.01 67 1015.2
20260502220136 57 1 0.0 1.0 0.00 0.01 0.01 66 1015.2
20260502214553 57 1 0.0 1.0 0.00 0.01 0.01 67 1015.1
20260502213152 58 37 0.0 3.0 0.00 0.01 0.01 66 1015.0
20260502211551 58 343 0.0 1.0 0.00 0.01 0.01 66 1015.0
20260502210149 59 32 0.0 3.0 0.00 0.01 0.01 67 1015.2
20260502204540 59 281 0.0 2.0 0.00 0.01 0.01 68 1015.1
20260502203046 59 188 0.0 3.0 0.00 0.01 0.01 68 1015.0
20260502201541 59 116 0.0 1.0 0.00 0.01 0.01 74 1015.1
20260502200139 59 71 0.0 2.0 0.00 0.01 0.01 74 1015.1
20260502194536 60 207 0.0 2.0 0.00 0.01 0.01 72 1015.2
20260502193046 60 248 0.0 2.0 0.00 0.01 0.01 68 1015.3
20260502191537 61 113 0.0 2.0 0.00 0.01 0.01 67 1015.4
20260502190133 59 126 0.0 2.0 0.00 0.01 0.01 74 1015.5
20260502184552 59 91 0.0 3.0 0.00 0.01 0.01 72 1015.6
20260502183043 59 194 0.0 6.0 0.00 0.01 0.01 72 1015.7
20260502181544 60 294 0.0 1.0 0.00 0.01 0.01 71 1015.8
20260502180139 59 136 0.0 3.0 0.00 0.01 0.01 74 1016.1
20260502170152 58 257 0.0 3.0 0.00 0.01 0.01 75 1016.3
20260502163055 59 111 0.0 3.0 0.00 0.01 0.01 81 1016.8
20260502161544 57 265 0.0 1.0 0.00 0.01 0.01 81 1017.4
20260502160145 56 295 0.0 1.0 0.00 0.01 0.01 81 1017.5
20260502151547 56 54 0.0 2.0 0.00 0.01 0.01 82 1017.0
20260502150135 56 114 0.0 3.0 0.00 0.01 0.01 81 1017.3
20260502130139 53 231 0.0 1.0 0.00 0.01 0.01 82 1016.5
20260502123053 53 175 0.0 0.0 0.01 0.01 0.01 86 1016.6
20260502121551 52 236 0.0 0.0 0.01 0.01 0.01 88 1016.3
20260502120150 52 240 0.0 0.0 0.01 0.01 0.01 89 1016.2
20260502114544 52 240 0.0 0.0 0.01 0.01 0.01 89 1016.5
20260502113046 52 240 0.0 0.0 0.00 0.00 0.00 88 1016.3
20260502111543 52 242 0.0 2.0 0.00 0.00 0.00 88 1016.3
20260502110143 52 150 0.0 1.0 0.00 0.00 0.00 89 1016.4
20260502104542 52 219 0.0 0.0 0.00 0.00 0.00 88 1016.3
20260502103038 53 229 0.0 0.0 0.00 0.00 0.00 87 1016.5
20260502101541 53 300 0.0 1.0 0.00 0.00 0.00 88 1016.5
20260502100133 53 141 0.0 0.0 0.00 0.00 0.00 90 1016.6
20260502090145 52 13 0.0 0.0 0.00 0.00 0.00 93 1016.6
20260502070150 51 131 0.0 0.0 0.00 0.00 0.00 94 1015.3
20260502064549 51 131 0.0 0.0 0.00 0.00 0.00 94 1015.3
20260502063045 51 130 0.0 0.0 0.00 0.00 0.00 94 1015.6
20260502061544 51 131 0.0 0.0 0.00 0.00 0.00 94 1015.7
20260502060143 51 131 0.0 0.0 0.00 0.00 0.00 94 1015.8
20260502054559 51 130 0.0 0.0 0.00 0.00 0.00 94 1015.8
20260502053044 51 131 0.0 0.0 0.00 0.00 0.00 94 1016.1
20260502051540 51 131 0.0 0.0 0.00 0.00 0.00 94 1016.2
20260502050137 51 131 0.0 0.0 0.00 0.00 0.00 94 1016.3
20260502044551 51 131 0.0 0.0 0.00 0.00 0.00 94 1016.4
20260502043108 51 131 0.0 0.0 0.00 0.00 0.00 93 1016.4
20260502041611 51 131 0.0 0.0 0.00 0.00 0.00 93 1016.5
20260502040146 51 131 0.0 0.0 0.00 0.00 0.00 93 1016.6
20260502034545 51 130 0.0 0.0 0.00 0.00 0.00 93 1016.8
20260502033040 52 131 0.0 0.0 0.00 0.00 0.00 93 1016.7
20260502031539 51 131 0.0 0.0 0.00 0.00 0.00 93 1016.7
20260502030138 51 131 0.0 0.0 0.00 0.00 0.00 92 1016.8
20260502024603 52 131 0.0 0.0 0.00 0.00 0.00 91 1017.0
20260502023125 52 130 0.0 0.0 0.00 0.00 0.00 90 1016.9
20260502021552 53 130 0.0 0.0 0.00 0.00 0.00 89 1017.0
20260502020152 53 130 0.0 0.0 0.00 0.00 0.00 88 1016.9
20260502014548 54 131 0.0 0.0 0.00 0.00 0.00 88 1016.9
20260502013054 54 214 0.0 0.0 0.00 0.00 0.00 88 1016.9
20260502011602 54 214 0.0 0.0 0.00 0.00 0.00 88 1016.7
20260502010144 53 214 0.0 0.0 0.00 0.00 0.00 87 1016.7
20260502004540 53 214 0.0 0.0 0.00 0.00 0.00 87 1016.3
20260502003039 54 166 0.0 0.0 0.00 0.00 0.00 85 1016.2
20260502001542 54 129 0.0 1.0 0.00 0.00 0.00 83 1015.8
20260502000138 55 169 0.0 1.0 0.00 0.00 0.00 81 1015.9
20260501234552 56 68 0.0 0.0 0.00 0.00 0.00 80 1016.2